Home   Weather   Fargo   Past weeks

Flag for USA Past Weather in Fargo, North Dakota, USA — Yesterday and Last 2 Weeks

Now
36 °F

Sunny.


Feels Like: 28 °F
Forecast: 23 / 36 °F
Wind: 12 mph from South

Location: Hector International Airport

Current Time: Jan 18, 2017 at 4:29:30 pm

Latest Report: Jan 18, 2017 at 3:53 pm


Visibility: 10 mi

Pressure: 29.75 "Hg

Humidity: 70%

Dew Point: 27 °F

Location of FargoLocation

Past Weather in Fargo — Graph

°F

Fargo Temperature Yesterday

Maximum temperature yesterday: 26 °F (at 3:53 pm)
Minimum temperature yesterday: 2 °F (at 1:53 am)
Average temperature yesterday: 14 °F

High & Low Weather Summary for the Past Weeks

 TemperatureHumidityPressure
High35 °F (Jan 18, 1:53 pm)92% (Jan 16, 9:53 am)30.82 "Hg (Jan 16, 9:53 am)
Low-20 °F (Jan 13, 1:53 am)62% (Jan 11, 2:53 pm)29.56 "Hg (Jan 10, 4:00 am)
Average2 °F77%30.21 "Hg
* Reported Jan 3 2:01 pm — Jan 18 2:53 pm, Fargo, Weather by CustomWeather, © 2017

Note: Actual official high and low records may vary slightly from our data, if they occured in-between our weather recording intervals... More about our weather records

Advertising

Fargo Weather History for the Previous 24 Hours

Scroll right to see more
 ConditionsComfort  
Time TempWeatherWind HumidityBarometerVisibility
2:53 pm
Wed, Jan 18
35 °FSunny.12 mph72%29.75 "Hg10 mi
1:53 pm35 °FSunny.10 mph70%29.75 "Hg10 mi
12:53 pm34 °FSunny.9 mph70%29.77 "Hg10 mi
11:53 am30 °FSunny.7 mph75%29.79 "Hg10 mi
10:53 am28 °FSunny.10 mph75%29.80 "Hg10 mi
9:53 am24 °FSunny.9 mph77%29.82 "Hg10 mi
8:53 am20 °FSunny.10 mph82%29.82 "Hg10 mi
7:53 am20 °FClear.9 mph85%29.83 "Hg10 mi
6:53 am22 °FClear.10 mph82%29.80 "Hg10 mi
5:53 am20 °FClear.8 mph85%29.82 "Hg10 mi
4:53 am20 °FClear.10 mph85%29.80 "Hg10 mi
3:53 am21 °FClear.10 mph81%29.81 "Hg10 mi
2:53 am23 °FClear.12 mph81%29.79 "Hg10 mi
1:53 am23 °FClear.12 mph81%29.81 "Hg10 mi
12:53 am22 °FClear.12 mph85%29.81 "Hg10 mi
11:53 pm
Tue, Jan 17
23 °FClear.13 mph78%29.83 "Hg10 mi
10:53 pm23 °FClear.13 mph81%29.84 "Hg10 mi
9:53 pm22 °FClear.14 mph82%29.87 "Hg10 mi
8:53 pm23 °FClear.18 mph81%29.85 "Hg10 mi
7:53 pm21 °FClear.16 mph85%29.86 "Hg10 mi
6:53 pm21 °FClear.14 mph85%29.90 "Hg10 mi
5:53 pm21 °FClear.14 mph85%29.92 "Hg10 mi
4:53 pm22 °FSunny.13 mph82%29.94 "Hg10 mi
Weather by CustomWeather, © 2017

See weather overviewHow to use our weather pages